Moriarty, NM

4:01 AM MDT on August 18, 2017 (GMT -0600)
Moriarty

Weather History for K0E0 - September, 2013

Change the Weather History Date:

Thursday, September 19, 2013

  Actual Average (KABQ) Record (KABQ)
Temperature  
Mean Temperature 64 °F -  
Max Temperature 78 °F 81 °F 93 °F (1956)
Min Temperature 51 °F 54 °F 34 °F (1912)
Growing Degree Days 14 (Base 50)    
Moisture  
Dew Point 51 °F    
Average Humidity 68    
Maximum Humidity 95    
Minimum Humidity 26    
Precipitation  
Precipitation 0.15 in - - ()
Sea Level Pressure  
Sea Level Pressure 30.12 in    
Wind  
Wind Speed 3 mph (NNW)    
Max Wind Speed 10 mph    
Max Gust Speed 9 mph    
Visibility 10 miles    
Events Rain , Thunderstorm    
Averages and records for this station are not official NWS values.
T = Trace of Precipitation, MM = Missing Value Source: NWS Daily Summary

Daily Weather History Graph

Daily Weather History Graph

Search for Another Location

Airport or City:

Trip Planner

Search our weather history database for the weather conditions in past years. The results will help you decide how hot, cold, wet, or windy it might be!

Date:

Astronomy

Sep. 19, 2013 Rise Set
Actual Time 6:50 AM MDT 7:04 PM MDT
Civil Twilight 6:24 AM MDT 7:29 PM MDT
Nautical Twilight 5:55 AM MDT 7:59 PM MDT
Astronomical Twilight 5:25 AM MDT 8:29 PM MDT
Moon 7:07 PM MDT (9/19) 7:00 AM MDT (9/19)
Length of Visible Light 13h 05m
Length of Day
12h 14m
Full, 100% of the Moon is Illuminated
Sep 19
Full
Sep 26
Last Quarter
Oct 4
New
Oct 11
First Quarter
Oct 18
Full

Hourly Weather History & Observations

Time (MDT) Temp. Dew Point Humidity Pressure Visibility Wind Dir Wind Speed Gust Speed Precip Events Conditions
12:15 AM 59.4 °F 55.9 °F 88% 30.10 in 10.0 mi South 4.6 mph - N/A   Scattered Clouds
12:35 AM 59.0 °F 56.3 °F 91% 30.10 in 10.0 mi SSE 6.9 mph - N/A Thunderstorm Mostly Cloudy
12:55 AM 59.0 °F 56.3 °F 91% 30.10 in 10.0 mi South 5.8 mph - N/A Thunderstorm Mostly Cloudy
1:15 AM 57.9 °F 55.6 °F 92% 30.10 in 10.0 mi NW 5.8 mph - N/A Thunderstorm Mostly Cloudy
1:35 AM 58.1 °F 55.8 °F 92% 30.10 in 10.0 mi NW 3.5 mph - N/A Thunderstorm Thunderstorm
1:55 AM 58.1 °F 56.1 °F 93% 30.10 in 10.0 mi Calm Calm - N/A Thunderstorm Overcast
2:15 AM 57.0 °F 55.2 °F 94% 30.10 in 10.0 mi Calm Calm - N/A Thunderstorm Mostly Cloudy
2:35 AM 57.2 °F 55.4 °F 94% 30.10 in 10.0 mi Calm Calm - N/A Thunderstorm Mostly Cloudy
2:55 AM 56.3 °F 54.5 °F 94% 30.10 in 10.0 mi Calm Calm - N/A   Mostly Cloudy
3:15 AM 57.6 °F 55.8 °F 94% 30.10 in 10.0 mi Calm Calm - N/A Thunderstorm Thunderstorm
3:35 AM 56.3 °F 54.1 °F 92% 30.10 in 10.0 mi Calm Calm - 0.01 in Thunderstorm Thunderstorm
3:55 AM 56.5 °F 54.7 °F 94% 30.10 in 10.0 mi Calm Calm - 0.01 in Thunderstorm Thunderstorm
4:15 AM 57.2 °F 55.4 °F 94% 30.10 in 10.0 mi WNW 3.5 mph - N/A Thunderstorm Thunderstorm
4:35 AM 57.4 °F 55.6 °F 94% 30.11 in 2.5 mi West 4.6 mph - 0.13 in Rain , Thunderstorm Heavy Thunderstorms and Rain
4:55 AM 57.4 °F 55.8 °F 94% 30.12 in 10.0 mi SE 8.1 mph - 0.14 in Rain , Thunderstorm Light Thunderstorms and Rain
5:15 AM 57.4 °F 55.4 °F 93% 30.11 in 10.0 mi SE 4.6 mph - N/A Thunderstorm Thunderstorm
5:35 AM 56.7 °F 54.7 °F 93% 30.11 in 10.0 mi SSE 4.6 mph - N/A Thunderstorm Thunderstorm
5:55 AM 56.3 °F 54.1 °F 92% 30.12 in 10.0 mi ENE 4.6 mph - N/A Rain , Thunderstorm Light Thunderstorms and Rain
6:15 AM 56.3 °F 54.3 °F 93% 30.13 in 10.0 mi Calm Calm - N/A Thunderstorm Mostly Cloudy
6:35 AM 55.9 °F 54.0 °F 93% 30.12 in 10.0 mi Calm Calm - N/A Rain , Thunderstorm Light Thunderstorms and Rain
6:55 AM 55.6 °F 53.6 °F 93% 30.13 in 10.0 mi Calm Calm - N/A   Overcast
7:15 AM 55.6 °F 53.8 °F 94% 30.13 in 10.0 mi Calm Calm - N/A   Overcast
7:35 AM 55.9 °F 54.1 °F 94% 30.14 in 10.0 mi Calm Calm - N/A   Overcast
7:55 AM 56.3 °F 54.5 °F 94% 30.15 in 10.0 mi Calm Calm - N/A   Overcast
8:15 AM 56.7 °F 55.2 °F 95% 30.15 in 10.0 mi Calm Calm - N/A   Scattered Clouds
8:35 AM 58.6 °F 56.7 °F 93% 30.15 in 10.0 mi NW 4.6 mph - N/A   Scattered Clouds
8:55 AM 60.1 °F 56.7 °F 88% 30.16 in 10.0 mi North 3.5 mph - N/A   Clear
9:15 AM 62.1 °F 57.2 °F 84% 30.16 in 10.0 mi Calm Calm - N/A   Clear
9:35 AM 63.5 °F 56.7 °F 78% 30.17 in 10.0 mi Calm Calm - N/A   Scattered Clouds
9:55 AM 65.5 °F 56.1 °F 72% 30.17 in 10.0 mi Calm Calm - N/A   Scattered Clouds
10:15 AM 66.2 °F 54.9 °F 67% 30.17 in 10.0 mi Calm Calm - N/A   Clear
10:35 AM 68.2 °F 56.3 °F 66% 30.17 in 10.0 mi NNW 5.8 mph - N/A   Scattered Clouds
10:55 AM 67.8 °F 56.1 °F 66% 30.17 in 10.0 mi Calm Calm - N/A   Overcast
11:15 AM 68.5 °F 55.6 °F 63% 30.17 in 10.0 mi NW 3.5 mph - N/A   Overcast
11:35 AM 69.8 °F 55.8 °F 61% 30.17 in 10.0 mi North 3.5 mph - N/A   Mostly Cloudy
11:55 AM 70.3 °F 54.9 °F 58% 30.16 in 10.0 mi Calm Calm - N/A   Scattered Clouds
12:15 PM 71.8 °F 51.4 °F 49% 30.16 in 10.0 mi North 4.6 mph - N/A   Clear
12:35 PM 72.9 °F 50.5 °F 45% 30.15 in 10.0 mi NNE 5.8 mph - N/A   Clear
12:55 PM 74.3 °F 52.5 °F 46% 30.14 in 10.0 mi ENE 5.8 mph - N/A   Scattered Clouds
1:15 PM 75.2 °F 45.7 °F 35% 30.14 in 10.0 mi North 5.8 mph 9.2 mph N/A   Clear
1:35 PM 75.4 °F 43.9 °F 32% 30.13 in 10.0 mi NNW 5.8 mph - N/A Thunderstorm Clear
1:55 PM 75.6 °F 44.8 °F 33% 30.12 in 10.0 mi North 4.6 mph - N/A   Clear
2:15 PM 75.9 °F 46.0 °F 35% 30.11 in 10.0 mi NW 4.6 mph - N/A   Scattered Clouds
2:35 PM 76.8 °F 46.4 °F 34% 30.11 in 10.0 mi NW 3.5 mph - N/A   Scattered Clouds
2:55 PM 77.5 °F 43.3 °F 30% 30.10 in 10.0 mi Calm Calm - N/A   Scattered Clouds
3:15 PM 78.3 °F 43.0 °F 28% 30.10 in 10.0 mi WSW 3.5 mph - N/A   Scattered Clouds
3:35 PM 77.9 °F 41.7 °F 27% 30.10 in 10.0 mi NNW 5.8 mph - N/A   Scattered Clouds
3:55 PM 78.1 °F 41.7 °F 27% 30.10 in 10.0 mi North 8.1 mph - N/A   Scattered Clouds
4:15 PM 77.9 °F 41.0 °F 27% 30.09 in 10.0 mi Calm Calm - N/A   Clear
4:35 PM 77.5 °F 41.4 °F 27% 30.08 in 10.0 mi Calm Calm - N/A   Clear
4:55 PM 77.0 °F 40.1 °F 27% 30.08 in 10.0 mi North 3.5 mph - N/A   Scattered Clouds
5:15 PM 77.4 °F 40.3 °F 26% 30.08 in 10.0 mi North 10.4 mph - N/A   Scattered Clouds
5:35 PM 77.0 °F 40.6 °F 27% 30.08 in 10.0 mi NNW 5.8 mph - N/A   Clear
5:55 PM 75.9 °F 42.1 °F 30% 30.08 in 10.0 mi North 8.1 mph - N/A   Clear
6:15 PM 73.9 °F 43.5 °F 34% 30.08 in 10.0 mi North 6.9 mph - N/A   Clear
6:35 PM 71.8 °F 46.8 °F 41% 30.08 in 10.0 mi Calm Calm - N/A   Clear
6:55 PM 69.8 °F 47.8 °F 46% 30.08 in 10.0 mi North 3.5 mph - N/A   Clear
7:15 PM 68.4 °F 47.3 °F 47% 30.08 in 10.0 mi Calm Calm - N/A   Clear
7:35 PM 66.7 °F 48.9 °F 53% 30.09 in 10.0 mi Calm Calm - N/A   Clear
7:55 PM 65.1 °F 50.0 °F 58% 30.10 in 10.0 mi Calm Calm - N/A   Clear
8:15 PM 63.0 °F 50.4 °F 63% 30.11 in 10.0 mi NNE 3.5 mph - N/A   Clear
8:35 PM 63.7 °F 46.9 °F 54% 30.12 in 10.0 mi Calm Calm - N/A   Clear
8:55 PM 61.2 °F 49.6 °F 66% 30.12 in 10.0 mi Calm Calm - N/A   Clear
9:15 PM 57.9 °F 50.7 °F 77% 30.13 in 10.0 mi NNW 4.6 mph - N/A   Clear
9:35 PM 55.6 °F 50.4 °F 83% 30.13 in 10.0 mi NNE 3.5 mph - N/A   Clear
9:55 PM 57.9 °F 49.6 °F 74% 30.13 in 10.0 mi Calm Calm - N/A   Clear
10:15 PM 56.8 °F 49.3 °F 76% 30.14 in 10.0 mi NW 3.5 mph - N/A   Clear
10:35 PM 53.8 °F 49.6 °F 86% 30.14 in 10.0 mi SSE 8.1 mph - N/A   Clear
10:55 PM 55.0 °F 49.3 °F 81% 30.14 in 10.0 mi Calm Calm - N/A   Clear
11:15 PM 55.6 °F 49.8 °F 81% 30.14 in 10.0 mi Calm Calm - N/A   Clear
11:35 PM 51.8 °F 48.4 °F 88% 30.16 in 10.0 mi NE 6.9 mph - N/A   Clear
11:55 PM 53.2 °F 49.6 °F 88% 30.16 in 10.0 mi East 3.5 mph - N/A   Clear